SL-8 DEB, 12793

Orbit data source: Space-Track

SL-8 DEB, 12793 is space debris in LEO originally from a launch on Fri, 28 Aug 1981 UTC launched from the Plesetsk Missile And Space Complex (PKMTR). Debris objects in space refer to the collection of defunct objects orbiting the Earth. Examples of debris include non-operational satellites, rocket bodies, and fragments generated from explosions, collisions, or faulty payload assembly.

Loading next visibility...
Identifier
12793, 1981-084C
Orbit
LEO
Country
Flag of CISCIS
Related business
Manufacturer
Unknown
Mission
Spacecraft
Bus & Motor
Unknown
Mass
Unknown
Launch date (UTC)
1981-08-28 (45 years ago)
Launch vehicle
Unknown
Launch site
Plesetsk Missile And Space Complex (PKMTR)
Object type
Payload
Rocket body
Debris
Shape & HBR
Unknown shape, 0.1 m
Radar Cross Section
Medium (>0.1 m² and <1 m²)

Expand to show TLE details & history
Last TLE update: 17 hours ago

TLE from 17 hours ago
0 SL-8 DEB
1 12793U 81084C   26178.11977517  .00003596  00000-0  50282-3 0  9998
2 12793  74.0217 165.2258 0001847 243.4435 116.6551 14.77999704370090
Epoch: 2026-06-27T02:52Z
TLE epoch observation values (Epoch: 2026-06-27T02:52:28.574Z)
Latitude
-0.00003°
Longitude
-153.13177°
Altitude
638.888 km
Speed
7.539 km/s
True Right ascension
11h 00m 54s
True Declination
0° 00' 00"
Sunlit
Object was in daylight at epoch
Visualization orbit readout
Latitude
Unknown
Longitude
Unknown
Altitude
Unknown
Speed
Unknown
Apparent Right ascension
Unknown
Apparent Declination
Unknown
Sunlit
N/A
Visualization observer readout
Local Sidereal Time
07:17:57
Azimuth
Unknown
Elevation
Unknown
Doppler factor
Unknown
Orbital elements
Apogee altitude
634.519 km
Perigee altitude
631.929 km
Semi-major axis
7,011.361 km
Eccentricity
0.00018
Inclination
74.0217°
RAAN
165.2258°
Arg. of periapsis
243.4435°
True anomaly
116.67401°
Mean anomaly
116.6551°
Eccentric anomaly
116.66456°
Mean motion
3.69692 °/min
Orbital period
97.38 mins
BSTAR
0.00050282
Loading maneuver chart data...
Computing Atmospheric mass density...
Loading historical data...
Loading historical data...
Loading historical data...
Loading historical data...
Loading historical data...
Loading historical data...
Loading historical data...
Other satellites on launch #84 in the year 1981 (1981-08-28 UTC)

Documentation

Showing up to 5 results
|